Location: Lake Almanor
(40.2485°N, 121.1442°W)
Time: 02:19:50
(UTC-08:00)

STARLINK-1093 - Pass Details

Date: 01 February 2020
Orbit: 348 x 351 km, 53.0° (Epoch: 22 February)

Event Time Altitude Azimuth Distance (km) Brightness Sun altitude
Rises 18:36:23 0° 307° (NW) 2,163 7.3 -14.3°
Reaches altitude 10° 18:38:25 10° 304° (NW) 1,317 6.2 -14.7°
Maximum altitude 18:41:19 65° 222° (SW) 390 3.0 -15.2°
Enters shadow 18:43:05 21° 144° (SE) 857 4.4 -15.5°
